Probability
0 0 0 0 0 0 0 0 0 0 0 0 0 0 0 0 0 0 0 0 0 0 1 1 1 1 2 3 3 3 1 0 0 0 0 0 0 0 0 1 1 1 1 1 1 2 3 3 3
0 0 0 0 0 0 0 0 0 0 0 0 0 0 0 0 0 0 0 0 0 0 0 0 0 1 2 3 3 3 2 1 0 0 0 0 0 0 0 0 1 2 2 1 1 2 3 3 3
0 0 0 0 0 0 0 0 0 0 0 0 0 0 0 0 0 0 0 0 0 0 0 0 0 0 1 3 3 3 2 1 0 0 0 0 0 0 0 0 0 1 2 1 1 3 3 3 2
0 0 0 0 0 0 0 0 0 0 0 0 0 0 0 0 0 0 0 0 0 0 0 0 0 0 1 2 3 3 3 1 0 0 0 0 0 0 0 0 0 1 2 2 3 3 3 3 2
0 0 0 0 0 0 0 0 0 0 0 0 0 0 0 0 0 0 0 0 0 0 0 0 0 1 1 2 3 4 3 2 1 0 0 0 0 0 0 0 0 1 1 2 3 3 3 3 3
0 0 0 0 0 0 0 0 0 0 0 0 0 0 0 0 0 0 0 0 0 0 0 0 0 1 2 1 2 4 4 3 3 2 1 1 1 0 0 0 1 1 1 1 1 2 3 3 2
0 0 0 0 0 0 0 0 0 0 0 0 0 0 0 0 0 0 0 0 0 0 0 1 1 1 2 1 1 3 4 4 4 4 3 2 1 0 0 0 1 2 1 0 0 1 2 2 1
0 0 0 0 0 0 0 0 0 0 0 0 0 0 0 0 0 0 0 0 0 0 1 2 2 2 2 1 0 1 2 3 4 4 3 1 0 0 0 0 1 2 1 0 0 0 1 1 1
0 0 0 0 0 0 0 0 0 0 0 0 0 0 0 0 0 0 0 0 0 0 1 1 1 1 1 0 0 0 1 2 3 2 1 0 0 0 0 0 1 1 0 0 0 0 0 0 0
0 0 0 0 0 0 0 0 0 0 0 0 0 0 0 0 0 0 0 0 0 0 0 1 1 1 0 0 0 0 0 1 1 1 0 0 0 0 0 0 0 0 0 0 0 0 0 0 0
0 0 0 0 0 0 0 0 0 0 0 0 0 0 0 0 0 0 0 0 0 0 0 0 1 1 0 0 0 0 0 0 0 0 0 0 0 0 0 0 0 0 0 0 0 0 0 0 0
0 0 0 0 0 0 0 0 0 0 0 0 0 0 0 0 0 0 0 0 0 0 0 0 0 0 0 0 0 0 0 0 0 0 0 0 0 0 0 1 1 0 0 0 0 0 0 0 0
0 0 0 0 0 0 0 0 0 0 0 0 0 0 0 0 0 0 0 0 0 0 0 0 0 0 0 0 0 0 0 0 0 0 0 0 0 0 0 1 2 1 0 0 0 0 0 0 0
0 0 0 0 0 0 0 0 0 0 0 0 0 0 0 0 0 0 0 0 0 0 0 0 0 0 0 0 1 0 0 0 0 0 0 0 0 0 0 1 2 1 0 0 0 0 0 0 0
0 0 0 0 0 0 0 0 0 0 0 0 0 0 0 0 0 0 0 0 0 0 0 0 0 0 0 0 0 0 0 0 0 0 0 0 0 0 0 1 2 1 0 0 0 0 0 0 0
0 0 0 0 0 0 0 0 0 0 0 0 0 0 0 0 0 0 0 0 0 0 0 0 0 0 0 0 0 0 0 0 0 0 0 0 0 0 0 1 2 1 0 0 0 0 0 0 0
0 0 0 0 0 0 0 0 0 0 0 0 0 0 0 0 0 0 0 0 0 0 0 0 0 0 0 0 0 0 0 0 0 0 0 0 0 0 1 1 1 1 0 0 0 0 0 0 0
0 0 0 0 0 0 0 0 0 0 0 0 0 0 0 0 0 0 0 0 0 0 0 0 0 0 0 0 0 0 0 0 0 0 0 0 0 1 2 2 1 0 0 0 0 0 0 0 0
0 0 0 0 0 0 0 0 0 0 0 0 0 0 0 0 0 0 0 0 0 0 0 0 0 0 0 0 0 0 0 0 0 0 0 0 0 1 1 1 0 0 0 0 0 0 0 0 0
0 0 0 0 0 0 0 0 0 0 0 0 0 0 0 0 0 0 0 0 0 0 0 0 0 0 0 0 0 0 0 0 0 0 0 0 0 0 0 0 0 0 0 0 0 0 0 0 0
0 0 0 0 0 0 0 0 0 0 0 0 0 0 0 0 0 0 0 0 0 0 0 0 0 0 0 0 0 0 0 0 0 0 0 0 0 0 0 0 0 0 0 0 0 0 0 0 0
0 0 0 0 0 0 0 0 0 0 0 0 0 0 0 0 0 0 0 0 0 0 0 0 0 0 0 0 0 0 0 0 0 0 0 0 0 0 0 0 0 0 0 0 0 0 0 0 0
0 0 0 0 0 0 0 0 0 0 0 0 0 0 0 0 0 0 0 0 0 0 0 0 0 0 0 0 0 0 0 0 0 0 0 0 0 0 0 0 0 0 0 0 0 0 0 0 0
0 0 0 0 0 0 0 0 0 0 0 0 0 0 0 0 0 0 0 0 0 0 0 0 0 0 0 0 0 0 0 0 0 0 0 0 0 0 0 0 0 0 0 0 0 0 0 0 0
0 0 0 0 0 0 0 0 0 0 0 0 0 0 0 0 0 0 0 0 0 0 0 0 0 0 0 0 0 0 0 0 0 0 0 0 0 0 0 0 0 0 0 0 0 0 0 0 0
0 0 0 0 0 0 0 0 0 0 0 0 0 0 0 0 0 0 0 0 0 0 0 0 0 0 0 0 0 0 0 0 0 0 0 0 0 0 0 0 0 0 0 0 0 0 0 0 0
0 0 0 0 0 0 0 0 0 0 0 0 0 0 0 0 0 0 0 0 0 0 0 0 0 0 0 0 0 0 0 0 0 0 0 0 0 0 0 0 0 0 0 0 0 0 0 0 0
0 0 0 0 0 0 0 0 0 0 0 0 0 0 0 0 0 0 0 0 0 0 0 0 0 0 0 0 0 0 0 0 0 0 0 0 0 0 0 0 0 0 0 0 0 0 0 0 0
0 0 0 0 0 0 0 0 0 0 0 0 0 0 0 0 0 0 0 0 0 0 0 0 0 0 0 0 0 0 0 0 0 0 0 0 0 0 0 0 0 0 0 0 0 0 0 0 0
0 0 0 0 0 0 0 0 0 0 0 0 0 0 0 0 0 0 0 0 0 0 0 0 0 0 0 0 0 0 0 0 0 0 0 0 0 0 0 0 0 0 0 0 0 0 0 0 0
Wind_Speed
7 4 2 3 4 3 2 3 1 1 1 1 2 5 5 3 2 3 1 4 6 6 5 6 7 9 10 9 9 9 8 8 8 8 8 8 8 8 8 8 8 8 8 9 9 9 9 9 9
3 2 4 4 4 2 3 2 2 2 2 1 3 4 4 2 2 4 2 4 7 7 5 5 7 9 9 9 9 9 8 8 8 8 8 8 7 8 8 8 7 7 7 8 8 8 8 8 8
2 2 4 4 3 4 4 2 3 1 1 1 2 3 3 2 2 3 3 6 7 6 4 5 8 9 9 9 8 8 8 7 7 7 7 7 7 7 8 8 7 7 7 7 7 7 7 7 7
3 4 4 3 3 3 3 3 2 1 1 2 3 2 1 0 3 3 5 7 7 6 5 6 9 9 9 9 8 8 8 7 7 7 6 6 7 7 7 7 7 7 6 6 6 6 6 6 6
3 4 3 1 3 3 2 3 2 1 1 0 3 2 0 2 2 5 6 7 7 6 5 5 8 9 8 8 8 8 7 7 6 6 6 6 6 6 6 6 6 6 5 5 5 5 5 5 5
4 3 3 3 4 3 2 2 1 1 1 0 2 2 1 0 3 4 5 6 6 6 5 4 7 7 7 7 8 7 7 7 6 6 5 5 5 5 5 5 5 5 4 4 4 4 4 5 4
4 3 3 4 3 3 2 1 1 2 2 2 2 3 1 2 3 3 4 5 5 5 5 4 4 5 6 6 6 7 6 6 5 5 5 4 4 4 4 4 4 4 3 3 4 4 4 5 5
4 3 2 2 4 4 2 0 1 1 2 1 2 5 4 5 3 3 4 4 4 4 4 4 3 3 3 3 5 5 5 5 4 4 4 3 3 3 3 3 3 3 3 3 3 3 4 4 5
3 3 2 3 4 3 1 0 1 1 1 1 0 2 3 5 5 4 3 2 2 3 3 3 3 3 2 2 4 4 4 4 4 3 3 3 2 2 1 2 2 2 2 2 2 3 4 4 4
3 3 4 2 2 3 1 1 2 0 1 1 1 1 3 5 6 6 5 5 5 5 4 3 4 4 3 2 2 2 2 2 2 2 2 2 1 1 1 1 2 1 2 2 2 3 4 3 2
2 4 3 2 1 2 1 1 1 2 4 5 5 5 5 4 5 6 6 6 6 5 5 4 4 4 4 2 2 2 1 2 2 2 2 2 1 1 1 1 1 1 1 1 2 2 1 1 1
1 2 2 2 1 1 2 2 2 4 7 4 5 6 6 6 6 7 7 6 4 4 4 4 4 4 4 3 3 3 2 2 2 2 2 2 1 1 1 0 0 0 0 0 0 1 1 1 1
2 2 2 2 1 2 2 4 4 6 6 3 3 5 6 7 7 6 6 5 5 5 5 5 5 5 4 4 3 3 3 3 3 2 2 2 2 2 1 1 1 0 0 0 0 0 1 1 1
2 1 2 3 3 2 3 5 3 9 4 4 5 6 6 7 7 6 5 6 6 6 6 5 5 5 5 4 4 3 3 3 3 3 3 3 2 2 2 1 1 1 1 1 1 1 1 1 1
1 1 3 3 3 2 1 6 7 8 3 5 6 6 6 6 6 7 8 7 7 6 6 5 5 5 5 5 4 3 3 3 3 3 3 3 2 2 2 2 1 1 1 0 0 0 0 0 1
1 1 3 4 3 3 3 9 7 4 4 6 6 5 5 5 6 6 6 6 5 5 5 6 5 4 4 4 4 3 3 3 3 2 2 3 3 3 2 2 1 1 0 1 1 1 0 0 1
1 1 4 4 3 3 4 9 7 2 4 6 6 5 5 5 4 4 5 5 5 6 6 6 5 5 4 4 3 3 2 3 2 2 2 2 2 2 2 2 1 1 1 1 0 0 0 0 1
4 3 4 5 3 3 5 11 10 4 5 7 7 6 5 5 6 5 4 4 4 4 5 6 5 4 3 2 2 1 2 2 2 2 2 2 2 2 2 1 1 1 1 0 0 0 1 0 1
3 3 5 5 2 2 7 12 12 7 5 7 6 6 6 6 5 3 3 3 3 3 4 5 5 4 3 2 2 2 2 2 2 2 2 2 2 2 2 2 1 1 2 2 2 1 0 0 0
3 3 4 4 2 2 6 11 10 7 6 7 7 7 7 6 3 3 2 2 3 3 4 4 4 5 4 3 3 2 2 2 2 2 2 2 2 2 2 2 2 2 2 2 2 2 1 0 0
3 4 4 3 4 3 4 9 6 4 3 4 4 5 5 6 5 4 3 3 3 3 4 4 4 4 4 3 2 2 2 1 1 1 1 2 2 2 2 2 2 2 2 3 3 3 2 1 1
5 3 2 1 2 4 0 6 8 4 4 4 4 4 4 4 4 3 3 3 4 4 4 4 4 4 4 4 4 5 4 3 3 2 2 1 2 2 2 2 2 2 2 3 3 2 2 2 2
3 1 1 2 1 3 1 3 10 3 4 6 5 4 3 3 3 4 4 4 3 3 3 3 3 3 3 4 5 5 4 3 2 2 2 1 1 1 2 2 2 2 2 2 2 2 3 2 3
1 2 2 2 2 3 4 4 8 4 5 4 4 4 3 2 2 2 2 2 1 1 2 2 3 3 3 4 4 5 5 4 3 2 2 2 1 1 1 2 2 3 3 3 3 3 3 3 3
2 4 4 5 3 6 2 3 9 6 5 4 4 5 4 2 2 2 2 3 3 3 2 2 3 2 2 3 4 4 5 5 5 4 3 2 2 2 2 2 3 3 3 3 3 3 3 3 4
2 4 5 4 4 5 2 6 8 4 4 3 2 1 2 2 2 3 3 3 3 3 3 2 3 3 2 3 3 3 3 3 3 3 3 3 3 3 3 3 3 3 3 3 3 3 3 3 4
3 3 3 4 0 3 6 7 8 2 3 2 1 1 2 3 3 3 2 2 3 3 3 3 3 2 3 3 3 3 3 3 3 3 3 3 2 2 2 3 3 3 3 3 3 3 4 4 4
2 3 3 3 2 4 6 5 5 4 4 3 3 3 4 3 2 2 2 2 2 2 1 2 2 2 2 2 2 2 3 3 3 2 3 3 2 2 2 3 3 3 3 3 3 3 3 4 4
3 3 3 3 3 4 4 8 6 5 4 5 6 5 4 4 4 3 2 1 0 0 1 1 1 1 1 1 1 2 2 2 2 2 3 2 2 2 3 3 3 3 3 3 3 4 4 4 4
4 5 6 5 4 4 4 10 4 3 3 3 4 4 3 3 3 2 2 1 0 0 0 1 1 2 2 1 1 2 2 2 2 2 3 2 3 3 3 3 3 4 4 4 4 5 5 5 5
Wind_Direction
337 338 58 63 62 60 235 251 230 46 51 51 83 97 106 106 133 157 153 131 132 144 157 154 148 144 135 130 126 123 120 117 114 109 106 103 100 97 93 89 86 87 88 86 84 82 77 74 70
331 1 57 67 106 166 244 247 189 216 184 144 67 88 90 83 69 111 130 145 140 145 152 153 146 143 139 135 131 127 123 120 118 114 110 107 103 99 95 92 87 85 87 85 82 83 78 72 70
330 56 82 87 144 187 206 215 190 172 76 97 69 54 100 134 145 158 172 145 135 140 145 149 141 140 141 139 137 133 130 125 120 117 113 110 105 100 95 92 89 86 86 86 81 81 78 72 68
62 53 64 92 198 224 208 222 185 131 19 47 102 67 49 21 173 168 140 137 133 140 141 145 143 142 143 142 138 136 134 130 124 120 117 113 109 104 100 93 89 85 83 81 79 78 75 71 65
64 85 91 161 217 239 238 243 187 164 190 40 114 121 150 333 100 122 133 137 138 142 145 152 147 145 145 147 144 141 138 135 131 128 124 119 113 108 103 98 94 89 83 77 72 70 69 63 56
67 81 124 202 216 240 260 261 183 185 193 163 118 128 198 220 126 139 138 136 142 145 144 149 151 147 147 151 151 146 143 143 139 135 131 128 121 115 111 105 101 95 86 77 71 63 60 49 44
115 119 173 188 197 235 245 276 177 201 207 214 155 134 187 228 188 150 136 133 133 139 139 145 152 154 153 153 155 151 149 146 141 136 128 123 120 121 116 105 99 94 86 76 68 63 60 46 38
130 121 171 190 193 224 257 288 222 196 219 222 137 156 201 215 180 130 123 122 125 134 142 147 148 147 150 156 156 153 147 141 135 130 119 113 111 111 106 99 97 93 82 70 62 58 54 42 32
98 93 195 205 190 206 253 245 293 265 133 29 90 184 199 153 138 125 123 118 139 155 159 155 152 147 145 149 152 151 147 137 130 126 117 106 98 99 99 97 93 86 65 54 49 45 39 33 32
95 164 212 215 184 185 224 227 255 321 317 273 322 14 111 136 151 160 174 182 186 189 188 176 166 163 157 161 147 148 148 139 130 125 125 112 111 104 89 85 73 60 39 23 29 26 27 27 20
128 187 204 229 221 194 230 279 260 184 233 218 206 186 159 163 174 184 195 199 200 194 188 184 181 171 162 162 157 153 148 142 140 144 142 128 113 98 90 88 54 24 40 26 9 9 5 5 3
140 254 215 232 239 222 234 251 264 223 227 215 197 169 164 179 196 200 202 207 199 186 196 189 179 173 174 169 170 167 163 159 156 167 159 143 136 137 152 153 163 164 51 143 354 346 335 355 354
198 231 246 234 238 238 245 249 245 249 242 226 180 179 187 199 211 216 214 210 198 198 201 195 182 178 176 172 178 172 175 172 171 170 171 158 158 173 182 185 177 199 232 189 185 261 316 348 345
198 217 262 261 247 248 238 262 244 252 230 202 199 211 210 210 213 217 218 211 206 206 202 195 188 185 175 176 180 182 177 172 166 171 176 166 167 176 181 189 183 206 229 217 198 207 234 293 311
120 345 300 251 222 226 234 279 237 240 208 215 218 221 226 226 221 217 214 208 206 206 197 192 189 182 179 180 181 181 178 164 168 177 175 170 171 179 180 184 191 212 232 217 206 227 94 344 331
47 9 286 266 204 207 183 263 259 223 201 229 235 234 237 237 230 225 212 206 204 199 192 191 186 182 185 181 182 184 175 167 175 177 177 176 176 178 174 181 198 203 202 187 184 176 140 325 314
30 248 254 278 222 192 202 254 265 223 210 240 241 237 240 250 248 232 215 206 201 195 187 184 182 183 188 181 177 178 170 171 173 170 177 183 177 174 171 185 195 173 175 195 196 230 174 253 307
217 233 252 254 257 212 236 257 271 265 230 242 244 242 241 240 241 232 217 209 201 194 184 180 176 178 177 168 150 150 169 170 166 174 190 183 179 170 164 175 187 164 164 176 113 309 338 221 280
190 209 253 262 268 249 251 265 270 264 244 245 246 240 239 245 248 233 211 202 183 174 171 172 170 173 161 162 167 175 198 181 175 184 178 180 173 167 166 173 172 168 187 193 164 143 345 317 32
211 234 261 284 304 269 279 278 270 249 234 230 235 235 232 239 244 230 209 186 179 177 172 169 175 175 175 182 183 185 172 181 174 166 165 172 169 170 178 173 179 191 198 182 164 146 152 253 85
247 219 235 268 322 317 316 300 282 274 250 250 240 235 233 224 222 219 209 203 183 180 181 178 180 178 182 177 153 128 106 93 115 161 188 197 175 169 170 180 186 206 199 195 194 182 172 198 247
248 231 209 247 327 288 12 293 288 278 287 274 263 249 243 242 227 216 202 204 200 197 185 178 179 178 181 171 168 166 173 189 201 191 192 197 185 182 177 182 197 213 209 204 205 199 192 179 214
226 207 211 236 216 291 262 235 281 309 285 275 263 251 249 247 222 215 203 201 207 196 182 179 172 176 183 176 175 173 181 197 183 158 163 184 199 196 195 196 201 214 214 213 208 204 204 206 207
156 37 47 48 72 279 238 201 275 250 242 268 265 251 245 242 222 211 192 177 197 179 172 174 166 176 186 180 175 177 180 180 171 176 184 193 205 221 222 209 210 214 215 215 216 212 209 219 222
71 81 29 358 352 255 250 212 251 253 250 239 251 246 233 218 194 186 194 196 195 189 189 180 167 178 185 183 180 183 183 181 185 190 194 193 208 234 231 223 221 219 223 225 219 217 222 221 223
208 150 159 203 242 285 297 237 250 262 286 282 271 250 213 206 202 204 211 206 204 198 193 184 180 184 185 185 185 180 180 183 192 195 199 203 216 228 230 227 229 226 223 225 219 224 231 231 233
163 200 178 139 178 282 269 277 293 293 314 323 324 312 237 225 222 227 224 217 211 205 203 193 188 188 190 188 183 179 182 189 197 198 202 212 223 230 227 227 229 229 223 221 218 229 233 230 236
178 157 118 137 178 264 284 268 254 261 263 268 259 246 248 239 240 243 231 222 223 209 201 181 178 196 204 193 191 181 186 193 195 195 213 219 224 225 223 221 222 228 227 223 220 232 236 233 241
169 170 160 158 179 187 268 269 226 221 226 228 237 239 237 229 228 223 222 220 217 142 143 154 172 191 206 200 202 186 187 198 196 205 221 224 225 222 226 228 226 229 230 225 224 233 231 234 245
197 189 163 171 223 210 233 267 260 230 254 238 246 249 244 233 226 210 197 167 110 125 177 196 196 207 219 205 194 196 185 182 201 225 235 230 231 230 230 231 231 232 232 227 224 232 231 231 241